Weather History for Doha, Qatar

Change the Weather History Date:

Tuesday, November 25, 2014

  Actual Average Record
Temperature  
Mean Temperature 81 °F -  
Max Temperature 85 °F 77 °F 85 °F (2014)
Min Temperature 77 °F 60 °F 60 °F (2002)
Cooling Degree Days 16    
Growing Degree Days 31 (Base 50)    
Moisture  
Dew Point 70 °F    
Average Humidity 69    
Maximum Humidity 83    
Minimum Humidity 39    
Precipitation  
Precipitation 0.00 in 0.01 in - ()
Sea Level Pressure  
Sea Level Pressure 29.91 in    
Wind  
Wind Speed 10 mph ()    
Max Wind Speed 15 mph    
Max Gust Speed -    
Visibility 6.2 miles    
Events Rain    
Averages and records for this station are not official NWS values.
T = Trace of Precipitation, MM = Missing Value Source: Averaged Metar Reports

Daily Weather History Graph

Daily Weather History Graph

Search for Another Location

Airport:

Trip Planner

Search our weather history database for the weather conditions in past years. The results will help you decide how hot, cold, wet, or windy it might be!

Date:

Astronomy

Nov. 25, 2014 Rise Set
Actual Time 5:57 AM AST 4:43 PM AST
Civil Twilight 5:33 AM AST 5:07 PM AST
Nautical Twilight 5:05 AM AST 5:36 PM AST
Astronomical Twilight 4:37 AM AST 6:03 PM AST
Moon 8:25 AM AST (11/25) 7:39 PM AST (11/25)
Length of Visible Light 11h 34m
Length of Day
10h 45m
Waxing Crescent, 10% of the Moon is Illuminated
Nov 25
Waxing Crescent
Nov 29
First Quarter
Dec 6
Full
Dec 14
Last Quarter
Dec 22
New

Hourly Weather History & Observations

Time (AST) Temp. Heat Index Dew Point Humidity Pressure Visibility Wind Dir Wind Speed Gust Speed Precip Events Conditions
12:00 AM 78 °F - 73 °F 79% 29.94 in 7 mi NNE 6.9 mph - -   Scattered Clouds
12:00 AM 78.8 °F - 73.4 °F 83% 29.92 in - NNE 6.9 mph - N/A   Clear
3:00 AM 79 °F - 71 °F 69% 29.93 in 7 mi ENE 10.4 mph - -   Partly Cloudy
4:00 AM 78.8 °F - 69.8 °F 74% 29.92 in 6.2 mi ENE 11.5 mph - N/A Rain Light Rain
5:00 AM 77.0 °F - 71.6 °F 83% 29.92 in - North - - N/A   Clear
6:00 AM 78 °F - 71 °F 73% 29.96 in 7 mi NE 12.7 mph - -   Mostly Cloudy
6:00 AM 78.8 °F - 69.8 °F 74% 29.95 in - NE 12.7 mph - N/A   Clear
6:30 AM 78.8 °F - 71.6 °F 78% 29.95 in 6.2 mi ENE 11.5 mph - N/A   Scattered Clouds
7:00 AM 78.8 °F - 71.6 °F 78% 29.95 in 6.2 mi ENE 11.5 mph - N/A   Scattered Clouds
7:30 AM 78.8 °F - 71.6 °F 78% 29.98 in 6.2 mi East 9.2 mph - N/A Rain Light Rain
8:00 AM 78.8 °F - 71.6 °F 78% 29.95 in 6.2 mi East 11.5 mph - N/A   Scattered Clouds
8:30 AM 80.6 °F 85.4 °F 73.4 °F 79% 29.98 in 6.2 mi East 11.5 mph - N/A   Scattered Clouds
9:00 AM 80 °F - 73 °F 74% 29.99 in 7 mi East 10.4 mph - -   Partly Cloudy
9:00 AM 80.6 °F 85.4 °F 73.4 °F 79% 29.98 in 6.2 mi East 10.4 mph - N/A   Scattered Clouds
9:30 AM 80.6 °F 85.4 °F 73.4 °F 79% 29.98 in 6.2 mi East 11.5 mph - N/A   Mostly Cloudy
10:00 AM 80.6 °F 85.4 °F 73.4 °F 79% 29.95 in 6.2 mi ESE 13.8 mph - N/A   Scattered Clouds
10:30 AM 82.4 °F 85.4 °F 68.0 °F 62% 29.95 in - SE 15.0 mph - N/A   Clear
11:00 AM 84.2 °F 85.6 °F 64.4 °F 51% 29.92 in - SE 15.0 mph - N/A   Clear
11:30 AM 84.2 °F 85.6 °F 64.4 °F 51% 29.92 in - SE 11.5 mph - N/A   Clear
12:00 PM 84 °F - 63 °F 39% 29.91 in 7 mi SSE 12.7 mph - -   Mostly Cloudy
12:00 PM 84.2 °F 85.0 °F 62.6 °F 48% 29.89 in - SSE 12.7 mph - N/A   Clear
12:30 PM 84.2 °F 85.6 °F 64.4 °F 51% 29.89 in - SE 11.5 mph - N/A   Clear
1:00 PM 82.4 °F 83.9 °F 64.4 °F 54% 29.89 in - SE 10.4 mph - N/A   Clear
1:30 PM 82.4 °F 83.9 °F 64.4 °F 54% 29.89 in - SE 9.2 mph - N/A   Clear
2:00 PM 84.2 °F 85.0 °F 62.6 °F 48% 29.86 in - SE 11.5 mph - N/A   Clear
3:00 PM 83 °F - 68 °F 51% 29.86 in 7 mi ESE 11.5 mph - -  
3:00 PM 84.2 °F 87.3 °F 68.0 °F 58% 29.83 in - ESE 11.5 mph - N/A   Clear
3:30 PM 82.4 °F 85.4 °F 68.0 °F 62% 29.86 in - ESE 10.4 mph - N/A   Clear
4:00 PM 80.6 °F 82.7 °F 66.2 °F 61% 29.86 in - ESE 11.5 mph - N/A   Clear
5:00 PM 78.8 °F - 71.6 °F 78% 29.86 in 5.0 mi ESE 11.5 mph - N/A   Unknown
6:00 PM 79 °F - 72 °F 73% 29.88 in 5 mi ESE 11.5 mph - -   Haze
6:00 PM 78.8 °F - 71.6 °F 78% 29.86 in 5.0 mi ESE 11.5 mph - N/A   Unknown
6:30 PM 78.8 °F - 71.6 °F 78% 29.89 in 5.6 mi ESE 12.7 mph - N/A   Unknown
7:00 PM 78.8 °F - 71.6 °F 78% 29.89 in - ESE 12.7 mph - N/A   Clear
7:30 PM 78.8 °F - 71.6 °F 78% 29.89 in - SE 11.5 mph - N/A   Clear
8:00 PM 78.8 °F - 69.8 °F 74% 29.89 in - SSE 10.4 mph - N/A   Clear
9:00 PM 79 °F - 72 °F 75% 29.91 in 6 mi SSE 11.5 mph - -   Scattered Clouds
9:00 PM 78.8 °F - 71.6 °F 78% 29.89 in - SSE 11.5 mph - N/A   Clear
9:30 PM 78.8 °F - 71.6 °F 78% 29.89 in - SSE 8.1 mph - N/A   Clear
10:00 PM 78.8 °F - 71.6 °F 78% 29.89 in - South 3.5 mph - N/A   Clear
10:30 PM 78.8 °F - 71.6 °F 78% 29.92 in - WSW 6.9 mph - N/A   Clear
11:00 PM 78.8 °F - 68.0 °F 69% 29.92 in - WSW 3.5 mph - N/A   Clear
11:30 PM 78.8 °F - 64.4 °F 61% 29.92 in 5.6 mi WSW 3.5 mph - N/A   Unknown